(520629) = 2014 OB415

Discovered at Mount Lemmon on 2013-04-22 by Mt. Lemmon Survey.

Orbit

Orbit type: Main Belt

Note: WebGL enabled browser required.

epoch2023-09-13.0
epoch JD2460200.5
perihelion date2023-04-10.89098
perihelion JD2460045.39098
argument of perihelion (°)290.05733
ascending node (°)24.82429
inclination (°)12.64758
eccentricity0.1358977
perihelion distance (AU)2.3551957
Tisserand w.r.t. Jupiter3.3
ΔV w.r.t. Earth (km/sec)10.4
semimajor axis (AU)2.7255982
mean anomaly (°)33.97411
mean daily motion (°/day)0.21903380
aphelion distance (AU)3.096
period (years)4.5
P-vector [x]0.69607495
P-vector [y]-0.54930439
P-vector [z]-0.46232494
Q-vector [x]0.71206003
Q-vector [y]0.61061632
Q-vector [z]0.34658076
absolute magnitude17.27
phase slope0.15
uncertainty0
referenceMPO 780424
observations used141
oppositions9
arc length (days)6571
first opposition used2005
last opposition used2023
residual rms (arc-secs)0.76
perturbers coarse indicatorM-v
perturbers precise indicator003Ek
first observation date used2005-11-03.0
last observation date used2023-10-31.0
computer nameMPCLINUX
Minimum Orbit Intersection Distances (in AU)
for orbit epoch: 2460200.5, reference: E2023-V03
Mercury1.92671
Venus1.63927
Earth1.37786
Mars1.01609
Jupiter2.29872
Saturn6.13994
Uranus15.4322
Neptune27.142

Observations

143 total observations over interval: 2005 11 03.12624 – 2023 10 31.309080
These data are available for download (format description).

